Selinsgrove, PA

4:55 AM EST on December 13, 2019 (GMT -0500)
Penn Valley

Weather History for KSEG - October, 2019

Change the Weather History Date:

Monday, October 28, 2019

  Actual Average (KIPT) Record (KIPT)
Temperature  
Mean Temperature 58 °F -  
Max Temperature 70 °F 56 °F 77 °F (1984)
Min Temperature 46 °F 36 °F 19 °F (1936)
Degree Days  
Heating Degree Days 8    
Growing Degree Days 8 (Base 50)    
Moisture  
Dew Point 47 °F    
Average Humidity 69    
Maximum Humidity 96    
Minimum Humidity 45    
Precipitation  
Precipitation 0.00 in - - ()
Sea Level Pressure  
Sea Level Pressure 30.15 in    
Wind  
Wind Speed 3 mph (WNW)    
Max Wind Speed 8 mph    
Max Gust Speed -    
Visibility 10 miles    
Events      
Averages and records for this station are not official NWS values.
T = Trace of Precipitation, MM = Missing Value Source: NWS Daily Summary

Daily Weather History Graph

Daily Weather History Graph

Search for Another Location

Airport or City:

Astronomy

Oct. 28, 2019 Rise Set
Actual Time 7:33 AM EDT 6:08 PM EDT
Civil Twilight 7:04 AM EDT 6:37 PM EDT
Nautical Twilight 6:32 AM EDT 7:09 PM EDT
Astronomical Twilight 6:00 AM EDT 7:41 PM EDT
Moon 7:51 AM EDT (10/28) 6:52 PM EDT (10/28)
Length of Visible Light 11h 32m
Length of Day
10h 35m
New Moon, 0% of the Moon is Illuminated
Oct 28
New Moon
Nov 4
First Quarter
Nov 12
Full
Nov 19
Last Quarter
Nov 26
New

Hourly Weather History & Observations

Time (EDT) Temp. Dew Point Humidity Pressure Visibility Wind Dir Wind Speed Gust Speed Precip Events Conditions
12:53 AM 55.9 °F 46.9 °F 72% 30.03 in 10.0 mi Calm Calm - N/A   Overcast
1:53 AM 55.9 °F 46.9 °F 72% 30.04 in 10.0 mi WNW 4.6 mph - N/A   Overcast
2:53 AM 57.0 °F 46.0 °F 67% 30.06 in 10.0 mi West 3.5 mph - N/A   Overcast
3:53 AM 55.9 °F 46.0 °F 69% 30.07 in 10.0 mi NW 8.1 mph - N/A   Scattered Clouds
4:53 AM 57.0 °F 45.0 °F 64% 30.09 in 10.0 mi West 4.6 mph - N/A   Overcast
5:53 AM 55.0 °F 45.0 °F 69% 30.12 in 10.0 mi WNW 3.5 mph - N/A   Overcast
6:53 AM 50.0 °F 46.0 °F 86% 30.13 in 10.0 mi North 4.6 mph - N/A   Mostly Cloudy
7:53 AM 46.9 °F 45.0 °F 93% 30.16 in 10.0 mi North 3.5 mph - N/A   Clear
8:53 AM 54.0 °F 46.9 °F 77% 30.19 in 10.0 mi Calm Calm - N/A   Clear
9:53 AM 60.1 °F 46.9 °F 62% 30.18 in 10.0 mi North 5.8 mph - N/A   Clear
10:53 AM 62.1 °F 46.9 °F 58% 30.19 in 10.0 mi NNW 6.9 mph - N/A   Clear
11:53 AM 63.0 °F 46.9 °F 56% 30.19 in 10.0 mi Variable 5.8 mph - N/A   Clear
12:53 PM 64.0 °F 46.0 °F 52% 30.17 in 10.0 mi Calm Calm - N/A   Clear
1:53 PM 66.9 °F 46.9 °F 49% 30.16 in 10.0 mi Calm Calm - N/A   Clear
2:53 PM 69.1 °F 46.9 °F 45% 30.14 in 10.0 mi Variable 4.6 mph - N/A   Clear
3:53 PM 69.1 °F 48.0 °F 47% 30.14 in 10.0 mi Variable 3.5 mph - N/A   Clear
4:53 PM 66.9 °F 48.0 °F 51% 30.14 in 10.0 mi SSW 6.9 mph - N/A   Clear
5:53 PM 64.9 °F 48.0 °F 54% 30.15 in 10.0 mi South 5.8 mph - N/A   Clear
6:53 PM 61.0 °F 48.0 °F 62% 30.17 in 10.0 mi South 4.6 mph - N/A   Clear
7:53 PM 52.0 °F 48.9 °F 89% 30.19 in 10.0 mi NNW 3.5 mph - N/A   Clear
8:53 PM 50.0 °F 48.0 °F 93% 30.19 in 10.0 mi Calm Calm - N/A   Clear
9:53 PM 48.0 °F 46.9 °F 96% 30.21 in 10.0 mi Calm Calm - N/A   Clear
10:53 PM 48.0 °F 46.0 °F 93% 30.22 in 10.0 mi Calm Calm - N/A   Clear
11:53 PM 55.9 °F 50.0 °F 80% 30.24 in 10.0 mi South 3.5 mph - N/A   Mostly Cloudy